Regional Weather Roundup
Issued by NWS

Home | Current Version | Previous Version | Text Only | Print | Product List | Glossary Off
Versions: 1 2 3 4 5 6 7 8 9 10 11 12 13 14 15 16 17 18 19 20 21 22 23 24 25 26 27 28 29 30 31 32 33 34 35 36 37 38 39 40 41 42 43 44 45 46 47 48 49 50

000
ASUS44 KMEG 191500
RWRTN
TENNESSEE HOURLY STATE WEATHER ROUNDUP
NATIONAL WEATHER SERVICE MEMPHIS TN
900 AM CST SUN NOV 19 2017

TNZ002-004-019-021-049-052-054-088>092-191600-
WEST TENNESSEE

CITY           SKY/WX    TMP DP  RH WIND       PRES   REMARKS
MEMPHIS INTL   SUNNY     45  30  55 N10       30.24R
NWS MEMPHIS      N/A     44 N/A N/A MISG        N/A
JACKSON        SUNNY     42  33  70 N8        30.22R
DYERSBURG      SUNNY     42  26  53 NW13G20   30.24R
$$

TNZ008-025-027-028-033-062-065-066-191600-
NORTH MIDDLE TENNESSEE

CITY           SKY/WX    TMP DP  RH WIND       PRES   REMARKS
NASHVILLE      CLOUDY    41  28  60 NW10G20   30.15R
CLARKSVILLE    SUNNY     38  22  52 NW17G23   30.16R WCI  28
SMYRNA         PTSUNNY   43  31  62 NW16      30.15R
CROSSVILLE     CLOUDY    37  29  72 NW10      30.05R WCI  30
$$

TNZ061-075-076-078-094-096-097-191600-
SOUTH MIDDLE TENNESSEE

CITY           SKY/WX    TMP DP  RH WIND       PRES   REMARKS
$$

TNZ017-018-042-046-047-191600-
NORTHEAST TENNESSEE

CITY           SKY/WX    TMP DP  RH WIND       PRES   REMARKS
TRI CITIES     CLOUDY    41  34  76 W12       29.99R
$$

TNZ012-013-036-069-073-074-191600-
CENTRAL EAST TENNESSEE

CITY           SKY/WX    TMP DP  RH WIND       PRES   REMARKS
KNOXVILLE      CLOUDY    43  36  76 SW5       30.04R
OAK RIDGE      CLOUDY    44  35  70 VRB3      30.07R
$$

TNZ083-085-099-191600-
SOUTHEAST TENNESSEE

CITY           SKY/WX    TMP DP  RH WIND       PRES   REMARKS
CHATTANOOGA    PTSUNNY   44  30  57 NW10      30.09R
$$

SKY/WX REPORTED AS FAIR MEANS FEW OR NO CLOUDS BELOW
12 THOUSAND FEET.




USA.gov is the U.S. government's official web portal to all federal, state and local government web resources and services.